Regional Weather Roundup
Issued by NWS

Home | Current Version | Previous Version | Text Only | Print | Product List | Glossary Off
Versions: 1 2 3 4 5 6 7 8 9 10 11 12 13 14 15 16 17 18 19 20 21 22 23 24 25 26 27 28 29 30 31 32 33 34 35 36 37 38 39 40 41 42 43 44 45 46 47 48 49 50

000
ASUS45 KCYS 141610
RWRWY

WYOMING REGIONAL WEATHER ROUNDUP
NATIONAL WEATHER SERVICE CHEYENNE WY
1000 AM MDT SUN SEP 14 2014

NOTE:  "FAIR" INDICATES FEW OR NO CLOUDS BELOW 12,000 FEET
WITH NO SIGNIFICANT WEATHER AND/OR OBSTRUCTIONS TO VISIBILITY.

WYZ001-141700-
YELLOWSTONE NATIONAL PARK

CITY           SKY/WX    TMP DP  RH WIND       PRES   REMARKS
LK YELLOWSTONE   N/A     48  38  68 SE5       30.23R
W YELLOWSTONE  NOT AVBL

$$
WYZ002>013-054>058-071-098>099-141700-
NORTHERN WYOMING

CITY           SKY/WX    TMP DP  RH WIND       PRES   REMARKS
JACKSON        SUNNY     48  30  49 CALM      30.18
CODY           MOSUNNY   48  37  66 NE3       30.10R
GREYBULL       SUNNY     50  38  63 CALM      30.09R
WORLAND        SUNNY     49  38  65 NW5       30.09R
SHERIDAN       MOSUNNY   45  38  76 NW3       30.10R
BUFFALO        SUNNY     46  38  73 CALM      30.09R
GILLETTE       SUNNY     48  38  68 SE18      30.10R
HULETT         CLOUDY    50  36  57 MISG      30.14
NEWCASTLE      PTSUNNY   43  36  75 SE6       30.14

$$
WYZ014>020-022>026-101>103-141700-
CENTRAL WYOMING

CITY           SKY/WX    TMP DP  RH WIND       PRES   REMARKS
BIG PINEY      MOSUNNY   53  29  39 VRB3      30.20S
PINEDALE       MOSUNNY   54  32  43 NW3       30.21S
DUBOIS         FAIR      63  23  22 NW31      30.13S
LANDER         CLOUDY    51  36  56 SE7       30.09F
RIVERTON       MOSUNNY   52  32  46 W6        30.11S
CASPER         MOSUNNY   50  35  56 E6        30.09S
DOUGLAS        SUNNY     50  37  61 E7        30.10F

$$
WYZ021-027>030-104>119-141700-
SOUTHERN WYOMING

CITY           SKY/WX    TMP DP  RH WIND       PRES   REMARKS
EVANSTON       SUNNY     64  32  30 SW13      30.22R
KEMMERER       SUNNY     61  32  33 NW6       30.22S
FORT BRIDGER   FAIR      68  32  26 W14       30.22S
ROCK SPRINGS   MOSUNNY   59  26  28 N3        30.18R
DIXON          FAIR      61  40  46 CALM      30.23S
RAWLINS        PTSUNNY   68  27  21 W15       30.18R
SARATOGA       FAIR      68  36  30 CALM      30.21S
LARAMIE        MOSUNNY   65  30  27 SW20      30.19S
CHEYENNE       MOSUNNY   72  39  30 W5        30.14S
TORRINGTON     CLOUDY    45  44  97 S5        30.10S
PINE BLUFFS    FAIR      61  45  55 CALM      30.10F

$$



USA.gov is the U.S. government's official web portal to all federal, state and local government web resources and services.